Weather History for Watertown, NY

Change the Weather History Date:

Thursday, December 13, 2012

  Actual Average Record
Temperature  
Mean Temperature 33 °F 27 °F  
Max Temperature 44 °F 36 °F 56 °F (1991)
Min Temperature 21 °F 19 °F -22 °F (2005)
Degree Days  
Heating Degree Days 32 38  
Month to date heating degree days 321 459  
Since 1 July heating degree days 1730 2058  
Cooling Degree Days 0 0  
Month to date cooling degree days 0 0  
Year to date cooling degree days 607 362  
Moisture  
Dew Point 27 °F    
Average Humidity 75    
Maximum Humidity 96    
Minimum Humidity 54    
Precipitation  
Precipitation 0.00 in 0.10 in 0.88 in (1996)
Month to date precipitation 1.98 1.42  
Year to date precipitation 32.35 34.35  
Sea Level Pressure  
Sea Level Pressure 30.37 in    
Wind  
Wind Speed 5 mph (South)    
Max Wind Speed 14 mph    
Max Gust Speed 20 mph    
Visibility 9 miles    
Events      
T = Trace of Precipitation, MM = Missing Value Source: NWS Daily Summary

Daily Weather History Graph

Daily Weather History Graph

Search for Another Location

Airport:

Trip Planner

Search our weather history database for the weather conditions in past years. The results will help you decide how hot, cold, wet, or windy it might be!

Date:

Astronomy

Dec. 13, 2012 Rise Set
Actual Time 7:30 AM EST 4:26 PM EST
Civil Twilight 6:57 AM EST 4:59 PM EST
Nautical Twilight 6:21 AM EST 5:35 PM EST
Astronomical Twilight 5:46 AM EST 6:10 PM EST
Moon 7:36 AM EST (12/13) 5:07 PM EST (12/13)
Length of Visible Light 10h 01m
Length of Day
8h 55m
New Moon, 0% of the Moon is Illuminated
Dec 13
New Moon
Dec 20
First Quarter
Dec 28
Full
Jan 4
Last Quarter
Jan 11
New

Hourly Weather History & Observations

Time (EST) Temp. Windchill Dew Point Humidity Pressure Visibility Wind Dir Wind Speed Gust Speed Precip Events Conditions
12:56 AM 24.1 °F - 21.0 °F 88% 30.43 in 6.0 mi Calm Calm - N/A   Mostly Cloudy
1:56 AM 24.1 °F - 21.9 °F 91% 30.43 in 7.0 mi Calm Calm - N/A   Mostly Cloudy
2:56 AM 21.9 °F 17.2 °F 19.9 °F 92% 30.43 in 6.0 mi East 3.5 mph - N/A   Clear
3:56 AM 23.0 °F - 21.0 °F 92% 30.43 in 7.0 mi Calm Calm - N/A   Clear
4:56 AM 21.9 °F - 19.9 °F 92% 30.44 in 8.0 mi Calm Calm - N/A   Scattered Clouds
5:56 AM 24.1 °F 19.7 °F 21.9 °F 91% 30.45 in 8.0 mi East 3.5 mph - N/A   Mostly Cloudy
6:56 AM 25.0 °F 20.7 °F 21.9 °F 88% 30.45 in 9.0 mi ENE 3.5 mph - N/A   Mostly Cloudy
7:56 AM 27.0 °F - 24.1 °F 89% 30.44 in 10.0 mi Calm Calm - N/A   Clear
8:56 AM 33.8 °F - 28.4 °F 81% 30.42 in 10.0 mi Calm Calm - N/A   Clear
9:56 AM 36.0 °F - 30.0 °F 79% 30.43 in 10.0 mi Calm Calm - N/A   Overcast
10:22 AM 37.4 °F 32.8 °F 32.0 °F 81% 30.41 in 10.0 mi South 5.8 mph - N/A   Mostly Cloudy
10:35 AM 37.4 °F 32.8 °F 32.0 °F 81% 30.40 in 10.0 mi Variable 5.8 mph - N/A   Scattered Clouds
10:56 AM 39.0 °F 34.0 °F 32.0 °F 76% 30.41 in 10.0 mi SSW 6.9 mph - N/A   Partly Cloudy
11:56 AM 43.0 °F 37.7 °F 34.0 °F 71% 30.39 in 10.0 mi SW 9.2 mph 17.3 mph N/A   Clear
12:56 PM 42.1 °F 35.2 °F 32.0 °F 67% 30.37 in 10.0 mi SW 12.7 mph 19.6 mph N/A   Partly Cloudy
1:56 PM 43.0 °F 36.0 °F 30.9 °F 62% 30.35 in 10.0 mi SSW 13.8 mph 17.3 mph N/A   Partly Cloudy
2:56 PM 43.0 °F 38.2 °F 30.9 °F 62% 30.35 in 10.0 mi SW 8.1 mph 17.3 mph N/A   Clear
3:56 PM 41.0 °F 36.4 °F 28.9 °F 62% 30.34 in 10.0 mi SW 6.9 mph - N/A   Clear
4:56 PM 37.0 °F 34.5 °F 27.0 °F 67% 30.31 in 10.0 mi SSE 3.5 mph - N/A   Clear
7:56 PM 37.0 °F 34.5 °F 26.1 °F 65% 30.28 in 10.0 mi South 3.5 mph - N/A   Clear
8:56 PM 37.0 °F 31.0 °F 26.1 °F 65% 30.26 in 10.0 mi South 8.1 mph - N/A   Clear
9:56 PM 37.9 °F 32.7 °F 27.0 °F 65% 30.24 in 10.0 mi South 6.9 mph - N/A   Clear
10:56 PM 39.0 °F 31.8 °F 24.1 °F 55% 30.21 in 10.0 mi South 11.5 mph 17.3 mph N/A   Clear
11:56 PM 39.0 °F 32.8 °F 24.1 °F 55% 30.21 in 10.0 mi SSW 9.2 mph - N/A   Clear